Theta_e
275 276 276 276 276 276 276 276 276 276 277 277 277 277 276 276 276 276 277 276 276 276 276 276 276 276 276 276 276 277 277 277 278 278 278 278 278 278 278 278 277 278 278 278 279 278 278 277 277 278 279 277 277 278 278 278 278 278 278 277 276 276 276 274 272 272 275 278 277 277 278 278 276 277 276 277 277 278 279 278 278 278 277 277 277
275 275 275 275 275 275 275 275 276 276 276 276 275 275 275 275 275 275 275 275 275 274 274 274 275 275 275 275 275 275 275 276 276 276 276 276 276 276 276 277 277 277 277 277 277 278 278 276 276 277 278 277 277 276 277 277 277 277 277 276 276 276 277 274 273 272 271 275 275 277 276 278 275 278 276 275 276 277 276 277 278 278 276 277 276
275 275 274 274 274 275 275 275 275 275 274 274 274 274 274 274 274 273 273 273 273 273 273 273 273 273 273 273 274 274 274 274 274 274 274 274 274 275 275 275 275 275 275 275 276 276 276 276 276 276 277 276 276 276 276 276 277 276 276 276 275 275 276 275 273 271 271 272 275 274 275 276 275 275 276 276 276 276 275 275 275 276 277 277 276
274 274 274 274 274 274 274 274 274 274 273 273 272 273 272 272 273 271 272 272 271 272 272 271 271 271 271 272 272 272 272 272 272 273 273 273 273 273 274 274 274 274 274 274 274 274 274 274 274 275 275 275 275 275 276 276 276 275 275 275 275 275 275 275 274 273 271 270 272 273 274 274 275 276 276 276 275 274 275 275 275 274 275 276 276
273 273 273 273 274 273 273 273 272 272 272 272 271 271 271 271 271 270 270 269 270 270 270 270 270 270 270 270 270 270 270 271 271 271 272 272 272 272 272 273 273 273 273 273 274 274 273 273 273 274 274 273 274 274 275 274 275 275 274 275 275 274 274 274 274 273 271 270 270 273 274 273 274 274 274 273 273 274 274 274 274 274 274 274 275
272 272 273 272 272 271 271 271 270 270 270 271 270 270 269 269 269 269 269 268 268 268 268 268 268 268 268 268 269 269 269 270 270 270 270 270 271 271 271 271 272 272 272 273 273 273 273 273 273 273 273 272 273 273 274 273 274 274 273 274 274 273 273 273 273 272 271 270 270 269 272 271 271 272 273 273 272 271 272 273 273 273 273 272 273
271 271 271 271 270 270 270 269 269 269 269 270 269 268 268 268 267 267 267 267 267 266 266 266 266 267 267 267 267 267 268 268 268 269 269 269 269 269 269 270 270 271 271 272 272 273 273 273 273 273 272 272 272 272 273 273 273 273 273 272 273 272 271 271 271 270 269 268 269 269 269 271 271 269 272 273 272 272 270 270 270 272 273 273 272
269 269 270 269 269 268 268 268 268 267 268 269 268 268 267 266 266 266 266 265 265 265 265 265 265 266 265 265 266 266 266 266 267 267 267 268 268 268 268 269 270 270 271 271 272 272 272 272 272 272 272 272 272 273 273 272 273 272 273 272 271 270 269 269 269 268 268 267 268 268 269 269 270 271 272 272 270 270 271 270 269 269 270 272 272
268 268 268 268 267 268 267 267 267 267 267 268 267 266 266 265 265 265 265 264 264 264 264 264 264 263 264 264 264 265 264 265 265 265 265 265 266 267 268 269 269 270 270 270 271 271 271 272 272 272 272 273 273 273 274 274 272 271 272 271 269 269 268 268 268 268 267 267 267 268 268 268 268 268 268 269 268 268 270 271 269 270 270 270 271
268 267 267 267 267 267 267 266 266 266 266 266 266 266 265 265 264 264 264 264 263 263 263 263 263 262 263 263 263 263 263 264 264 265 266 267 267 268 268 268 269 269 269 269 270 270 270 271 271 272 272 272 272 273 273 273 273 273 271 271 268 268 267 267 267 268 267 266 267 267 266 266 268 268 268 269 270 270 269 269 268 268 269 269 270
267 267 266 267 266 266 266 265 265 264 265 264 265 264 264 264 263 263 263 263 262 262 263 262 262 262 262 262 262 262 263 263 264 267 269 270 268 267 267 268 268 269 269 269 268 269 269 270 270 271 272 272 272 272 272 272 272 272 272 271 270 268 267 267 267 267 267 267 267 267 266 266 267 269 268 269 270 269 269 269 268 268 267 266 265
266 266 267 266 266 265 265 265 264 264 264 263 263 263 263 262 262 262 262 262 262 262 261 261 261 261 261 261 261 261 262 263 266 268 269 270 269 268 268 268 268 268 269 268 268 268 267 268 269 269 269 269 269 269 270 271 271 271 271 270 270 270 270 268 267 267 267 266 266 266 266 266 266 267 267 268 268 269 269 268 268 267 266 266 266
266 265 266 266 265 265 265 264 263 263 263 263 263 262 262 262 261 261 261 261 262 261 261 261 260 261 260 260 260 261 261 263 266 267 268 269 270 270 268 268 268 268 267 266 266 266 267 267 267 267 267 268 268 268 268 268 269 270 270 270 270 270 270 271 271 269 268 267 266 266 267 267 266 267 268 268 269 267 268 267 267 267 267 266 266
265 265 265 265 265 265 264 264 263 263 263 262 262 261 261 260 261 261 261 261 260 260 260 260 260 260 259 259 259 260 260 262 265 267 268 269 270 269 267 267 266 266 265 265 265 265 265 266 266 266 267 267 267 267 267 267 267 267 268 268 268 269 270 270 270 270 270 268 267 266 267 268 267 268 269 269 268 266 266 266 267 266 266 266 268
264 265 264 264 264 263 263 263 262 262 262 262 262 260 260 260 260 260 260 260 259 259 259 259 259 259 259 259 259 259 260 262 265 267 268 269 269 268 266 266 266 266 265 265 264 264 264 265 265 265 266 266 267 267 266 266 266 266 266 266 267 267 267 268 268 268 268 268 268 267 268 269 268 269 269 269 268 268 268 267 267 267 267 268 268
264 264 263 263 263 263 262 262 261 261 261 260 260 259 260 259 259 260 260 259 259 260 259 259 258 258 259 258 258 258 259 263 265 266 267 268 268 266 265 265 265 265 265 264 264 264 264 264 264 264 265 265 266 267 267 267 266 266 265 265 266 266 267 268 270 270 268 268 267 267 267 268 270 268 269 268 268 268 269 269 269 268 266 265 264
263 263 262 262 262 262 261 260 260 259 259 259 258 259 259 258 259 259 258 258 258 258 258 258 258 258 258 258 258 258 259 261 264 265 266 267 266 264 264 264 264 264 264 264 264 264 264 264 264 264 264 264 266 267 268 267 266 265 265 265 265 265 266 267 269 271 271 272 272 272 272 272 273 273 273 273 271 270 269 267 265 267 265 264 264
262 261 261 261 261 260 260 259 259 259 259 258 258 258 258 258 258 258 258 257 257 257 258 258 258 258 258 257 258 258 258 260 261 263 265 266 265 263 263 263 263 263 263 263 264 264 264 264 264 264 264 264 265 266 268 267 265 265 264 264 264 264 265 266 266 267 270 271 271 271 272 272 272 272 272 271 271 270 266 264 265 266 264 264 263
260 260 259 260 259 259 259 259 258 258 257 257 257 257 257 257 258 258 257 257 257 258 258 257 257 257 258 257 258 257 257 258 259 262 264 265 264 263 263 263 262 262 263 262 263 263 263 263 263 263 263 263 265 266 267 266 264 264 264 264 263 263 264 265 265 265 265 265 265 266 266 267 267 266 267 268 268 268 267 266 266 265 264 264 264
259 259 259 258 258 259 259 258 257 257 256 256 256 256 257 257 257 257 257 257 257 257 257 257 256 256 257 257 257 257 257 257 258 261 263 264 265 263 263 262 261 261 261 261 261 261 262 262 262 262 263 263 264 265 266 266 264 264 264 263 262 262 265 265 266 265 265 265 265 265 265 266 266 266 266 266 267 267 266 266 266 266 265 264 265
258 258 258 258 258 258 257 257 256 255 256 255 256 256 256 256 256 256 255 256 256 255 255 255 255 255 256 257 257 257 257 256 257 259 262 263 264 263 262 262 262 261 260 260 260 260 260 261 262 261 261 262 262 264 265 266 266 264 263 263 263 265 266 263 263 264 264 264 265 265 266 266 266 267 267 267 267 267 267 267 266 266 266 265 264
258 257 257 257 256 256 256 255 255 255 255 255 254 254 255 256 255 255 255 255 254 253 254 254 255 255 256 256 256 256 257 257 257 258 260 262 263 264 262 262 262 260 259 259 259 260 260 260 260 260 260 261 262 264 265 266 266 263 263 265 266 265 263 263 264 264 264 264 264 264 265 265 265 265 266 266 267 267 267 266 266 266 267 267 266
256 256 255 255 255 254 254 254 253 254 253 254 253 253 254 254 254 254 253 253 253 253 253 254 254 254 255 256 257 257 257 257 257 256 258 260 262 263 263 262 262 260 259 257 258 259 260 259 260 260 261 262 263 264 265 263 263 262 265 265 264 263 263 262 263 262 262 262 263 262 263 264 264 264 265 266 267 267 267 267 266 266 266 266 267
255 254 254 254 254 254 253 253 253 253 253 253 253 253 253 253 253 254 253 253 253 253 254 254 254 254 254 255 256 257 258 258 258 257 257 259 261 262 263 262 261 259 259 259 259 259 259 259 259 261 261 262 263 263 263 261 261 262 262 262 261 262 261 261 261 261 261 261 261 261 262 263 264 264 264 265 266 265 265 265 265 265 264 265 265
253 253 253 253 253 253 252 252 252 253 253 253 252 252 252 252 252 253 253 252 253 252 253 254 253 254 254 254 255 257 258 258 258 258 257 258 260 260 261 261 259 259 258 259 259 259 259 260 260 260 260 260 260 260 260 260 260 260 260 260 260 260 260 260 260 260 260 260 260 261 262 263 263 264 265 264 264 265 265 265 265 265 264 264 264
252 252 252 252 252 252 251 252 252 252 252 252 252 252 251 251 251 251 252 252 252 252 252 253 253 254 254 255 255 256 257 257 257 257 257 257 258 259 259 258 258 258 258 258 258 258 259 259 258 258 258 258 258 257 257 258 258 258 259 259 258 259 259 259 259 259 259 260 260 260 261 263 263 264 263 263 263 264 265 265 265 265 265 265 264
251 252 251 252 252 252 251 251 251 252 252 252 252 252 252 251 251 251 251 251 251 252 252 252 253 253 253 254 255 255 256 256 257 257 258 258 258 258 258 258 258 258 258 258 258 258 257 257 257 257 257 257 257 257 257 257 257 257 258 258 258 259 259 259 258 258 258 259 259 260 261 262 263 263 262 263 263 264 265 264 264 264 265 265 264
251 251 250 251 251 251 251 250 250 251 251 250 250 250 251 251 250 250 250 250 250 251 251 252 252 253 253 254 254 255 255 256 256 256 257 257 258 258 258 257 257 257 257 257 257 257 256 256 256 256 256 255 255 256 256 256 256 256 257 257 257 257 258 258 258 258 258 259 259 260 260 261 260 261 262 262 262 263 264 263 263 263 264 264 263
250 250 251 251 251 251 251 251 250 250 250 250 250 250 249 249 250 250 251 252 252 251 251 252 253 253 254 254 254 254 254 255 256 258 257 258 258 257 257 257 257 257 257 257 256 256 255 255 254 254 254 254 253 254 254 254 255 255 255 255 256 257 257 257 257 257 258 258 258 258 258 259 260 260 261 261 261 262 263 262 262 262 263 263 262
249 250 250 250 250 250 250 250 250 250 249 249 249 249 250 250 250 250 250 252 252 253 253 252 253 253 253 254 255 254 254 255 257 258 258 258 258 257 257 257 257 257 256 255 255 254 253 253 253 253 252 252 252 252 252 253 253 254 254 255 256 256 256 256 256 257 257 257 258 258 258 258 258 259 260 260 261 262 262 261 261 262 261 262 262
249 249 249 249 249 249 249 249 249 249 249 249 248 248 248 250 251 251 251 251 252 252 253 253 254 254 253 253 255 257 256 256 257 257 257 257 257 256 256 256 256 256 254 253 253 252 252 251 251 252 252 251 251 251 252 252 252 252 253 254 254 255 255 255 256 257 257 257 257 257 258 258 258 258 259 259 260 260 261 262 261 261 261 261 262
248 248 248 248 248 248 249 249 248 248 248 248 248 247 247 247 249 251 251 251 251 252 252 252 253 253 253 253 254 255 256 256 255 256 256 256 255 255 255 255 255 254 253 253 251 251 251 251 250 250 251 250 251 251 251 251 252 252 252 252 253 254 254 255 256 255 255 256 256 256 257 257 257 258 258 259 259 259 260 260 261 260 261 262 262
246 247 247 247 248 248 248 248 248 247 247 247 247 247 247 247 246 247 249 251 251 251 251 251 251 252 252 253 254 255 255 255 255 255 255 255 255 254 254 254 254 253 252 251 250 250 250 250 250 250 250 250 250 250 251 251 251 251 252 252 252 253 254 254 254 254 254 255 256 256 256 257 257 258 258 258 258 258 259 259 260 260 260 260 261
246 246 247 247 247 247 247 247 247 247 247 246 246 246 247 247 247 246 246 247 248 249 250 250 250 250 251 251 252 254 254 254 254 254 254 255 254 253 253 252 252 252 250 249 249 249 249 249 250 250 250 250 250 250 250 250 251 251 251 252 252 253 253 254 254 254 255 255 256 256 256 256 257 257 257 258 259 259 259 259 259 259 259 260 260
246 246 246 246 247 247 247 247 247 246 246 246 246 246 246 247 247 246 246 245 245 246 246 248 249 249 249 250 251 252 252 253 253 253 254 254 252 252 252 250 250 250 250 250 249 249 249 249 249 249 249 249 249 249 249 249 250 250 250 251 251 252 252 253 253 254 254 255 255 255 255 255 255 256 257 257 258 258 258 258 259 259 259 260 259
246 246 246 246 246 247 247 247 246 246 245 246 246 247 246 246 246 246 246 246 246 245 246 247 247 248 249 250 250 250 251 251 252 253 253 252 251 250 249 249 249 249 248 249 249 248 249 249 249 248 249 248 249 249 249 249 249 250 250 250 250 251 251 252 253 253 254 254 254 254 254 254 255 255 256 257 257 257 258 258 259 259 259 259 259
245 246 246 246 246 246 246 246 246 246 245 246 246 246 246 246 246 246 246 245 245 245 245 246 246 247 248 248 249 249 249 250 251 252 252 251 250 249 249 248 248 248 248 248 248 248 248 248 248 248 248 248 248 248 249 249 249 249 249 250 250 250 251 252 252 252 252 253 254 254 253 253 254 255 255 256 257 257 258 258 258 258 257 257 256
245 245 245 245 245 246 246 246 245 245 245 245 245 245 245 245 245 245 245 245 244 244 244 245 245 245 246 247 248 248 248 249 250 250 250 250 249 249 249 248 248 247 247 248 248 247 247 247 248 247 247 248 247 248 248 248 249 249 249 249 250 250 251 251 252 252 252 253 253 253 253 253 254 256 256 256 257 257 257 257 258 258 256 254 256
246 245 244 244 245 245 245 245 245 245 245 245 245 244 244 244 244 244 244 244 244 244 244 245 245 245 246 246 246 248 248 248 249 248 248 249 249 248 248 248 248 247 247 247 247 247 247 247 247 247 247 248 247 248 248 248 249 249 249 249 249 250 251 251 251 251 252 252 252 253 253 253 254 255 256 257 257 257 257 257 257 257 258 257 257
245 245 245 244 245 245 244 244 244 244 244 244 244 244 244 243 243 244 244 243 243 244 244 244 244 245 245 245 246 247 247 247 248 248 248 248 248 248 248 247 247 247 246 246 247 247 246 247 247 247 247 247 247 247 248 248 248 248 249 249 249 249 250 250 251 251 251 251 251 252 252 252 253 256 257 257 257 258 257 257 257 256 256 256 256
245 245 244 244 244 244 244 244 244 243 243 243 243 243 243 243 243 243 243 243 243 243 244 244 244 245 245 245 246 247 246 246 247 247 247 247 247 247 247 247 247 246 246 246 246 246 246 246 246 246 247 247 247 247 247 248 248 248 248 249 249 249 250 250 250 250 251 250 251 251 252 252 253 254 255 255 256 257 256 256 256 256 256 255 255
244 244 244 244 244 243 243 243 243 243 243 243 243 243 243 243 243 243 243 243 243 243 243 244 244 245 245 245 245 245 246 246 246 246 247 247 247 247 247 247 247 247 246 246 246 246 246 246 246 246 246 246 247 247 247 247 248 248 248 248 248 248 249 249 250 250 250 250 250 250 250 251 252 253 254 255 255 256 256 256 256 255 256 255 256
244 244 244 243 243 243 242 242 243 242 242 242 242 242 242 242 242 242 242 242 242 243 243 243 244 244 244 244 244 244 245 245 244 245 246 246 247 247 247 247 247 247 246 246 246 246 246 245 245 246 246 246 246 246 246 247 247 248 248 248 248 248 248 249 249 250 250 250 250 249 249 250 251 252 253 254 255 255 256 255 255 256 255 255 255
244 243 243 243 243 243 243 242 242 242 242 242 242 242 242 242 242 242 242 242 242 243 243 243 243 243 244 244 244 244 245 244 244 245 245 246 246 246 247 247 246 246 246 246 246 246 246 245 245 246 246 246 246 246 246 247 247 247 247 248 248 248 248 248 249 249 249 249 249 249 249 250 250 252 253 253 254 254 255 255 255 255 255 256 255
243 243 242 242 242 242 242 242 242 242 242 242 242 242 241 242 242 242 242 242 242 242 243 243 243 243 243 243 244 243 244 244 244 244 245 245 245 246 246 246 246 245 245 246 246 246 245 245 245 245 245 246 246 246 247 248 248 248 249 248 248 248 248 248 249 249 249 248 248 248 249 250 250 251 252 253 253 253 255 255 255 253 254 254 255
243 242 242 242 242 242 242 242 242 242 241 241 241 241 241 241 241 241 242 242 242 242 242 242 242 242 243 243 243 243 243 243 244 244 244 245 245 245 245 245 245 245 245 246 246 245 245 244 244 245 245 245 246 246 247 248 248 249 249 249 249 249 249 249 249 249 248 248 248 248 249 249 250 251 250 251 253 254 254 254 254 254 254 254 254
242 242 242 242 242 241 241 241 241 241 241 241 241 240 241 241 241 241 241 241 241 241 242 242 242 242 243 243 243 243 243 243 243 244 244 243 244 244 245 244 244 244 245 245 245 245 245 245 245 245 245 245 246 246 247 248 249 249 249 250 250 249 249 249 249 249 248 248 248 248 248 249 249 250 251 251 252 253 252 253 253 253 253 253 253
242 242 242 242 242 242 241 241 241 240 241 240 240 240 240 241 241 241 241 241 241 241 241 241 242 242 242 243 243 243 243 243 243 244 244 244 245 245 244 243 244 244 244 244 245 245 245 245 245 245 245 245 246 247 247 248 249 249 249 250 250 250 249 248 249 249 249 249 248 248 247 248 249 250 250 250 251 252 252 253 253 253 253 253 253
242 242 242 242 241 241 241 241 241 241 240 240 240 240 240 240 240 241 241 241 241 241 241 241 241 242 242 242 242 242 243 243 243 244 244 244 244 244 244 244 243 243 244 244 244 244 244 245 245 246 246 247 247 248 248 248 248 249 249 249 249 249 248 248 249 249 249 249 249 248 248 248 248 248 249 249 250 251 251 252 252 252 252 252 252
242 242 242 241 241 241 241 241 241 241 241 241 240 240 240 240 240 240 240 240 241 241 241 241 241 241 241 242 241 242 242 243 243 243 244 244 244 244 244 243 243 243 243 243 244 244 245 245 246 246 247 247 248 248 248 248 248 249 249 249 249 249 249 248 249 249 249 250 250 250 249 249 249 249 250 250 250 250 250 251 251 251 251 251 251
242 242 242 242 241 241 241 241 241 241 241 240 240 240 240 240 240 240 240 240 240 241 241 241 241 241 241 242 241 242 242 242 243 243 244 244 244 243 243 243 242 242 243 243 244 245 245 246 247 247 247 248 248 248 248 249 249 249 249 249 249 248 248 249 249 249 249 248 249 250 249 249 249 249 250 251 251 250 250 250 250 251 251 252 251
Wind_Speed
9 8 7 7 7 7 6 6 6 5 6 6 6 6 5 5 5 5 4 4 5 5 5 5 5 5 6 6 6 6 6 7 6 7 7 8 8 9 10 10 11 11 11 12 12 11 10 11 13 14 13 13 12 12 12 13 13 12 11 11 11 11 11 11 13 14 13 10 10 9 8 10 10 9 11 11 13 13 15 13 13 11 10 9 10
9 8 7 7 7 7 7 7 6 6 6 6 6 5 5 5 5 5 4 4 5 5 5 5 5 6 6 6 6 7 7 7 7 7 7 8 9 7 8 10 10 11 11 12 13 11 12 12 13 13 13 13 13 14 13 13 13 15 14 12 12 12 11 12 14 14 17 10 11 9 10 10 12 13 10 10 10 11 13 13 12 12 10 10 10
7 7 6 6 6 6 6 5 6 6 6 5 6 5 5 5 5 5 5 5 5 5 5 6 6 6 7 7 7 7 7 7 7 7 8 9 9 9 9 10 11 11 11 12 12 11 12 12 13 14 12 12 13 14 13 15 14 16 16 12 14 13 12 14 14 14 14 14 10 12 13 13 13 12 12 10 10 11 13 13 13 12 11 12 11
6 6 6 5 5 5 5 5 6 6 5 5 6 5 5 5 5 6 6 5 6 6 6 7 7 7 7 7 7 7 7 7 8 8 8 9 9 10 10 10 10 11 11 11 11 11 12 12 13 13 14 15 14 15 14 14 16 14 16 13 14 15 15 14 15 13 11 12 12 12 12 12 13 12 10 11 10 11 10 12 13 13 14 13 13
6 5 5 5 5 5 5 5 5 5 5 4 5 5 5 5 5 6 6 6 7 6 6 7 7 7 7 7 8 8 8 8 8 9 8 9 10 10 10 10 11 11 11 12 13 13 12 13 13 12 12 15 14 15 16 17 16 16 16 14 11 14 12 13 11 12 11 11 11 12 10 9 9 10 11 10 10 11 11 11 13 14 13 14 13
5 5 4 5 5 5 5 5 5 5 5 4 5 5 5 6 6 6 6 6 7 6 6 7 7 8 8 8 9 9 9 9 9 9 9 9 9 10 9 10 10 11 11 12 12 12 12 13 13 13 13 14 14 16 14 16 16 16 14 13 13 11 13 13 13 12 11 11 11 12 9 9 8 9 10 11 10 11 11 11 10 10 10 11 12
5 5 4 4 4 5 5 5 5 5 5 4 5 5 5 5 5 5 6 6 6 6 6 7 7 7 8 8 9 9 9 9 9 9 9 9 8 9 10 10 11 11 11 11 11 12 13 13 13 12 13 13 14 14 14 14 9 11 10 10 9 8 9 12 11 11 10 11 10 9 8 9 9 9 9 10 11 11 12 11 12 11 12 13 13
4 4 3 3 3 4 4 4 4 5 5 4 4 4 4 5 5 5 6 6 6 6 7 7 7 7 8 8 8 8 8 9 9 8 8 8 9 10 11 11 11 12 12 12 12 12 13 13 13 12 12 13 13 13 14 16 15 10 12 7 8 8 8 8 7 7 8 8 9 8 8 8 7 8 7 9 10 10 9 9 13 14 13 12 13
4 3 3 2 2 2 2 3 3 4 5 3 4 6 5 5 5 5 5 5 5 6 6 7 7 8 8 8 8 8 8 8 7 7 9 10 10 11 12 12 12 12 12 13 12 13 13 13 13 12 13 18 21 20 19 17 11 15 11 8 8 8 8 8 8 8 8 10 10 8 8 8 7 7 7 8 9 11 10 10 12 13 13 13 13
4 4 4 2 3 3 3 3 4 5 5 5 6 7 7 7 7 7 6 5 5 6 6 6 7 8 8 9 8 8 8 7 9 15 15 12 12 11 12 12 12 12 13 13 13 12 12 12 13 20 20 20 21 22 23 24 25 16 8 9 8 8 8 9 9 11 10 11 11 10 9 8 7 8 8 9 10 11 12 12 13 13 12 13 13
4 5 4 3 3 3 3 4 4 6 5 6 6 6 7 6 7 7 6 6 7 7 7 8 8 8 9 9 9 9 8 8 15 18 18 20 15 12 12 12 12 13 12 13 13 13 11 11 12 15 16 14 14 18 18 20 22 21 15 10 8 9 8 9 11 11 11 10 10 11 11 10 9 8 9 9 10 11 11 12 12 12 12 12 14
4 4 4 3 3 4 4 5 6 6 7 7 7 7 7 7 7 8 8 8 8 8 9 8 8 9 8 9 9 9 9 12 17 19 20 20 18 13 12 12 12 12 11 9 7 7 8 9 8 7 7 8 8 9 12 14 16 15 15 15 13 14 13 11 11 10 11 10 10 10 9 10 9 9 9 8 9 11 12 12 13 13 13 14 13
4 6 5 5 5 5 6 6 7 7 7 7 7 7 8 8 8 8 9 9 9 9 9 10 9 8 9 10 10 10 10 14 17 19 19 20 20 17 11 12 11 10 6 5 5 5 6 6 6 6 6 9 9 9 10 10 13 16 16 16 16 17 17 19 19 13 10 11 11 11 10 9 11 10 10 11 11 13 13 13 13 13 14 15 14
6 6 6 6 6 7 7 7 8 8 8 7 7 8 8 8 8 8 8 8 8 9 9 10 10 9 9 10 10 10 10 13 18 19 19 20 18 16 10 5 5 5 4 4 5 5 6 6 7 7 7 6 6 6 7 7 7 8 8 8 7 10 16 20 21 22 18 12 12 12 11 11 11 11 11 11 11 12 12 13 13 14 15 15 16
5 7 6 6 5 6 7 8 8 9 9 9 9 9 9 9 8 8 7 8 8 8 8 9 9 9 9 9 10 10 9 15 18 19 19 18 18 15 9 5 6 6 6 5 4 5 5 6 7 7 8 7 6 7 7 7 7 7 7 8 9 9 8 8 9 8 9 9 10 11 11 12 13 14 12 11 13 14 14 16 17 16 17 16 15
8 7 4 6 6 7 8 8 8 8 9 8 8 9 9 8 8 8 8 8 8 9 9 10 10 10 9 9 10 11 10 16 18 18 18 18 19 12 10 9 8 8 7 7 5 6 6 7 7 8 8 8 10 13 12 9 9 9 9 9 10 10 10 12 16 16 14 12 11 11 12 15 17 14 14 14 13 14 15 15 15 15 15 14 15
7 5 5 6 7 7 7 7 8 8 8 8 9 9 9 8 7 7 8 8 9 9 9 9 9 9 10 9 10 11 11 13 17 18 20 21 16 10 10 10 10 10 8 7 7 7 8 8 8 8 9 9 12 15 15 14 11 11 10 10 10 11 12 11 16 20 21 22 23 23 24 26 26 28 27 28 21 15 10 9 9 9 11 13 14
5 6 6 8 7 7 7 8 8 9 9 9 10 9 8 7 8 8 8 9 9 9 9 9 9 9 10 10 10 11 12 13 17 19 20 20 17 12 10 10 10 10 8 7 6 7 8 10 9 8 8 9 12 15 17 14 12 12 12 14 16 14 13 11 9 10 20 22 23 23 24 24 25 26 25 24 22 17 10 11 10 9 11 11 13
6 6 7 7 7 7 8 8 9 9 9 9 8 8 7 8 7 8 8 9 10 10 9 10 10 9 10 11 14 13 12 13 15 17 19 19 15 11 10 9 10 10 8 7 6 5 4 5 5 6 7 9 13 15 16 14 11 12 13 13 14 15 13 12 13 11 10 10 11 12 14 17 15 13 13 18 18 14 10 10 9 9 11 11 12
6 6 6 7 8 9 9 9 9 8 9 9 7 7 7 8 9 9 9 9 10 9 9 9 10 10 10 10 10 10 11 11 12 16 18 18 18 11 9 10 10 8 5 5 5 5 5 4 5 6 10 12 14 15 16 16 13 11 11 11 12 13 11 11 13 12 13 12 13 13 14 14 14 13 12 12 12 11 9 9 9 9 11 11 11
6 7 8 9 10 9 8 7 7 8 7 7 7 6 7 8 9 9 9 9 9 9 9 9 9 10 9 10 10 10 10 11 12 15 16 18 17 15 9 9 9 5 5 4 5 5 5 5 5 8 11 14 15 16 17 18 17 12 11 9 9 11 10 4 5 6 5 7 8 9 10 10 11 11 11 11 10 9 8 9 9 10 10 11 11
8 9 9 9 8 7 6 6 7 6 6 7 7 7 7 8 8 8 8 9 9 9 9 9 9 9 9 10 10 10 11 12 11 13 15 16 17 16 10 9 7 3 3 3 4 5 6 6 5 8 12 14 16 17 19 19 20 10 7 13 16 13 7 6 5 5 5 6 7 8 7 7 8 9 10 11 9 8 8 7 9 10 10 10 11
8 8 8 7 6 6 6 7 7 5 6 7 7 8 8 8 8 8 8 8 9 10 9 8 8 9 9 9 9 9 9 9 10 9 12 14 15 15 13 12 2 2 2 3 4 6 5 5 6 9 13 15 16 18 19 20 15 10 17 17 15 14 11 6 7 7 7 7 7 8 7 7 7 7 7 7 7 6 6 7 8 9 10 10 11
9 8 8 7 6 7 7 7 6 6 7 7 7 8 8 8 8 8 7 8 8 8 8 8 8 9 9 9 9 9 10 10 10 10 10 12 12 13 13 7 4 3 3 4 4 5 5 5 7 13 14 16 18 18 18 17 12 15 15 16 15 13 7 8 8 8 8 8 8 9 9 8 7 7 7 5 6 7 7 7 8 9 9 8 9
8 8 7 7 7 6 6 6 7 7 7 8 7 8 9 8 8 8 8 8 7 8 8 7 8 8 9 9 9 9 10 10 9 8 9 9 10 10 9 8 7 7 5 4 4 5 7 12 14 13 14 14 15 15 13 13 14 14 15 15 13 8 8 8 8 8 8 8 9 9 9 9 8 8 7 6 6 7 7 6 7 6 6 7 7
7 7 6 7 7 7 8 7 7 7 7 8 7 7 7 7 7 7 7 7 7 7 8 7 8 8 8 8 8 9 10 10 8 6 5 4 5 6 7 7 7 7 7 6 8 11 12 12 12 11 10 10 9 9 10 11 15 17 17 15 8 8 7 7 7 7 8 8 9 9 9 9 9 8 5 5 6 8 7 6 6 6 5 4 5
6 6 7 8 8 8 7 8 8 7 7 7 7 7 7 7 7 7 7 6 7 7 7 8 8 8 8 8 9 9 10 8 7 5 3 3 4 4 4 4 6 7 6 6 7 7 8 7 7 10 11 13 14 14 14 15 12 10 8 8 7 7 7 7 6 7 7 7 8 8 8 8 7 8 8 8 8 7 6 6 6 6 5 5 5
6 7 8 7 7 8 7 8 8 7 7 7 7 8 7 7 7 7 6 7 7 7 7 8 8 8 9 9 9 9 8 7 5 3 3 3 4 5 4 4 5 5 6 7 7 6 5 8 9 7 7 8 8 9 9 9 10 10 9 8 8 8 9 11 11 8 9 8 9 8 8 8 9 9 8 8 8 8 7 6 6 7 6 5 5
6 7 8 8 8 7 7 7 6 7 7 7 7 7 7 8 8 8 8 6 6 7 8 9 9 9 9 9 10 9 7 5 4 5 5 6 6 6 5 5 6 6 7 8 6 5 7 8 7 9 9 10 10 10 9 9 9 9 9 9 8 8 8 7 8 8 8 8 9 9 9 8 8 8 8 9 9 8 6 5 6 6 7 6 7
7 8 8 8 8 8 7 7 7 7 7 8 9 9 9 9 8 8 8 10 12 13 12 9 10 10 10 10 10 8 7 6 8 10 10 10 9 10 10 10 9 7 8 8 6 6 8 9 9 10 9 9 9 8 8 7 8 8 7 8 8 7 7 7 8 8 8 8 9 9 9 9 9 9 9 9 9 8 7 6 6 6 6 7 7
8 8 9 9 9 8 8 7 7 7 8 8 8 9 10 9 9 11 10 11 11 13 14 15 16 15 12 10 12 14 10 9 9 10 11 10 11 12 9 7 8 8 9 7 6 7 9 9 10 9 8 7 7 7 7 7 7 7 7 7 7 7 7 7 7 7 8 8 8 8 8 8 9 8 9 9 9 8 8 7 6 6 7 7 8
8 8 8 9 9 7 7 7 7 7 8 8 8 8 8 10 10 9 9 9 11 13 14 14 15 15 16 15 12 9 9 8 7 8 9 10 12 8 6 7 8 9 8 8 6 6 8 8 7 7 6 6 6 6 6 6 6 6 7 6 6 6 6 6 6 6 7 7 7 8 8 8 8 8 8 8 8 8 8 8 7 6 6 7 8
6 7 8 8 8 7 7 7 7 7 8 8 8 7 8 8 9 10 9 10 11 11 12 13 15 16 16 16 16 13 11 9 9 8 9 11 9 5 7 7 9 8 8 5 5 6 6 6 6 6 5 5 5 5 6 6 6 7 6 6 7 7 6 7 8 7 7 7 7 7 7 8 8 8 8 8 8 8 8 8 7 6 6 6 7
6 7 8 8 9 8 7 7 7 7 7 7 7 7 7 7 8 8 10 11 10 8 8 11 14 15 15 16 14 12 11 10 9 9 9 10 5 7 8 7 8 5 2 3 4 5 5 5 5 5 5 5 5 6 6 6 6 6 7 7 7 7 7 8 7 6 6 6 6 6 7 7 7 7 8 7 7 7 7 7 6 6 6 6 6
7 8 9 7 7 8 7 7 6 7 7 7 7 7 7 7 7 7 8 9 10 10 10 9 10 13 13 11 11 11 10 10 9 9 10 6 8 9 9 6 6 5 5 4 5 4 5 5 5 5 5 6 6 6 6 6 6 6 7 7 7 7 8 7 7 6 6 6 7 7 7 7 8 7 8 7 7 7 7 6 6 6 6 5 5
7 8 8 6 6 6 7 6 6 7 7 7 7 7 7 7 7 7 7 7 8 8 9 8 9 11 15 12 10 10 11 10 9 9 7 7 8 8 5 6 6 5 5 5 5 5 5 5 5 6 6 6 6 6 6 6 6 6 6 7 7 7 8 8 7 7 7 7 7 8 8 8 8 8 7 8 8 8 7 6 6 6 5 4 2
7 7 7 7 7 7 6 7 7 7 7 7 7 6 6 6 7 7 7 7 7 7 8 9 9 9 8 4 7 11 11 10 9 8 5 6 5 4 5 5 5 5 5 5 5 6 6 6 5 6 6 6 6 6 6 7 7 7 7 6 7 7 7 7 8 8 8 7 7 8 9 8 8 7 7 7 6 6 6 6 5 3 1 0 1
6 5 6 7 7 8 7 7 8 9 7 5 5 5 6 6 6 6 7 7 7 7 8 8 8 7 7 8 10 7 8 9 7 5 3 3 2 4 4 4 4 5 5 6 6 6 6 6 6 6 6 7 7 7 7 7 7 6 6 7 7 7 10 9 9 7 7 7 7 8 8 8 7 6 6 6 6 5 6 4 4 3 2 1 2
7 7 8 9 7 7 7 8 8 7 6 5 5 5 6 6 6 6 6 6 7 7 7 7 7 6 7 7 8 8 7 5 3 3 4 4 4 3 4 4 5 5 5 5 6 6 6 7 6 7 7 7 8 8 7 7 6 6 6 7 7 7 7 6 7 7 7 7 7 7 8 8 6 5 4 4 4 4 3 2 1 1 2 2 1
6 7 6 8 7 8 8 7 7 6 5 5 6 5 6 5 6 6 6 6 7 7 6 6 7 6 7 7 7 8 6 5 4 4 5 5 4 4 4 4 5 5 5 6 6 6 7 7 7 7 8 7 7 7 7 6 6 6 6 6 6 7 7 7 6 7 7 7 7 7 7 8 8 6 2 2 3 3 2 2 1 0 1 1 1
7 7 6 7 8 8 7 6 5 5 6 6 6 6 5 5 5 6 6 6 6 6 6 6 6 6 6 8 12 11 6 5 5 5 4 4 4 4 4 4 5 5 5 6 6 6 7 7 8 8 8 7 7 7 7 6 6 6 6 6 6 6 7 7 6 6 6 7 6 7 7 7 7 7 5 4 3 2 2 2 1 0 0 0 1
7 7 7 8 8 7 6 5 5 6 5 5 5 5 5 6 5 5 5 5 5 6 6 6 6 6 7 11 11 11 6 4 4 4 4 3 3 4 4 4 4 4 5 6 7 7 8 8 8 8 8 8 7 7 6 6 6 6 6 6 6 7 7 7 6 6 6 6 6 6 6 6 6 6 5 5 3 3 2 1 1 1 1 1 2
6 7 7 7 6 5 5 5 5 5 5 5 5 5 5 5 5 5 5 5 5 5 6 6 6 6 6 7 8 8 4 4 4 3 3 4 4 4 5 4 5 5 6 7 7 7 8 8 8 8 8 7 7 6 6 6 6 6 6 6 6 6 6 7 6 6 5 6 6 6 6 6 5 5 4 3 3 3 2 2 2 2 1 1 2
7 7 6 6 5 5 5 5 5 5 5 6 6 5 5 5 4 4 5 5 5 5 5 5 5 5 6 6 6 5 5 5 5 4 4 4 4 5 5 5 6 7 7 8 8 7 8 8 8 8 7 7 7 7 6 6 6 6 6 6 6 6 6 6 6 6 5 5 6 6 6 6 5 5 4 3 4 3 3 2 3 3 3 3 2
6 6 5 5 5 5 5 5 5 5 5 5 5 5 4 4 4 4 5 5 4 5 5 5 5 5 4 5 6 6 5 5 4 4 4 4 5 5 5 6 6 7 9 8 6 7 7 7 7 7 7 7 6 6 6 6 6 6 6 6 6 6 6 6 6 6 5 5 6 6 5 5 5 5 4 4 4 3 4 3 3 4 3 3 4
5 5 4 5 5 4 5 5 5 5 5 5 5 5 5 4 4 4 4 4 4 5 5 4 5 4 4 5 5 5 5 5 5 5 4 5 5 5 6 6 8 8 8 8 8 8 6 6 6 6 6 7 7 6 6 7 7 7 6 6 6 7 6 6 6 6 5 5 5 5 5 5 5 4 5 4 4 4 4 4 4 4 4 4 4
5 4 5 4 5 5 4 5 5 5 5 5 5 5 5 5 4 4 3 4 5 4 4 4 4 5 5 4 4 5 5 5 5 5 5 4 5 6 7 8 8 9 8 8 8 7 6 6 6 6 6 7 7 7 7 6 6 6 6 6 6 6 6 5 5 6 6 5 5 5 5 5 6 5 5 4 4 4 4 4 4 4 4 4 4
5 4 4 4 5 5 5 5 5 5 4 4 4 4 4 4 4 4 4 4 4 3 4 4 4 4 4 5 5 5 6 6 5 4 5 5 6 7 7 6 6 8 8 8 7 7 6 6 6 6 6 7 7 7 6 6 6 5 5 5 5 5 7 8 7 7 6 5 5 5 5 5 5 5 5 5 5 4 4 4 4 3 3 4 3
5 5 5 5 5 5 4 5 4 4 4 4 4 4 3 4 4 4 4 4 4 4 4 4 4 4 4 5 4 5 6 5 6 6 6 6 7 7 7 6 6 6 6 7 7 6 6 6 6 6 6 6 6 6 6 6 6 6 6 6 7 10 10 10 8 7 7 7 6 5 5 5 5 5 6 5 5 4 4 4 4 4 4 4 3
5 5 5 5 5 5 4 4 4 4 3 4 4 4 4 4 4 4 4 4 4 4 4 4 4 4 4 5 4 4 5 5 5 6 7 7 7 7 6 6 6 6 6 6 7 6 6 7 6 6 6 6 6 6 6 6 6 6 6 6 11 11 10 10 10 9 7 5 5 5 5 5 5 5 5 5 4 4 4 4 4 2 4 4 4
5 5 5 4 4 4 4 4 4 4 4 4 4 4 4 4 4 4 4 4 4 4 4 4 4 4 4 4 3 4 5 5 6 7 7 7 6 6 6 6 6 7 7 7 6 6 6 6 6 6 6 6 6 6 6 6 6 6 9 12 11 10 10 9 7 7 8 7 5 5 4 4 4 5 5 4 4 4 3 4 3 3 4 3 3
Wind_Direction
54 52 51 52 55 53 50 47 43 45 46 48 47 41 37 30 25 14 12 9 17 354 357 345 340 335 327 320 314 312 307 304 300 295 287 284 282 282 282 280 277 274 274 273 270 268 263 257 253 252 255 256 254 254 251 250 247 242 237 236 234 228 228 232 245 258 263 252 260 262 265 273 274 271 268 268 266 267 270 267 268 267 266 268 272
48 45 45 42 40 39 35 35 37 41 49 48 43 40 33 30 23 8 8 5 9 354 351 343 337 330 322 314 312 307 305 301 300 296 293 293 292 291 289 286 283 280 278 275 273 271 269 267 262 259 257 257 255 253 253 254 254 255 248 239 235 234 225 233 245 251 259 260 259 259 263 266 271 269 267 268 272 271 269 270 269 268 268 269 273
45 42 44 44 41 40 38 43 46 49 46 42 36 30 25 22 17 10 2 0 357 354 348 340 335 329 322 317 314 311 309 307 304 301 298 295 292 289 287 286 283 282 279 278 278 277 275 271 271 270 270 264 256 251 250 254 254 255 249 239 245 237 233 235 241 244 253 259 260 266 269 271 270 273 272 275 280 281 279 272 273 273 269 269 270
43 44 41 46 47 46 52 48 41 33 30 30 26 24 16 13 12 7 0 356 349 346 344 340 337 328 323 319 317 314 312 308 304 301 298 295 293 290 289 286 284 282 280 280 278 278 276 276 273 272 272 271 266 262 258 259 258 253 249 237 241 244 243 238 237 244 247 257 261 264 266 266 268 275 277 277 280 280 276 272 270 273 274 272 268
40 40 42 45 50 50 47 44 34 28 23 19 27 21 13 13 6 2 355 348 344 342 339 338 331 324 321 318 315 312 310 308 307 304 301 298 296 293 290 288 285 282 281 279 279 277 274 272 272 271 270 269 267 262 265 262 256 252 248 244 232 237 233 237 234 238 244 249 258 261 265 266 271 275 278 280 278 274 271 272 275 265 267 272 273
34 33 35 38 41 38 34 30 25 16 10 10 17 13 9 5 360 355 346 346 336 336 335 333 326 320 318 316 312 309 307 305 303 300 298 297 295 293 292 289 285 281 279 277 275 274 275 273 273 272 271 269 267 267 265 259 250 248 242 240 242 229 230 235 235 234 238 246 252 262 259 264 267 269 277 280 282 281 280 277 274 261 254 265 267
28 27 32 31 31 28 28 25 20 7 359 2 1 4 2 353 350 344 339 338 328 328 332 324 319 315 313 312 308 304 303 301 297 295 295 296 297 298 293 288 284 281 277 276 274 274 272 272 273 273 271 269 268 265 261 252 232 228 222 219 216 212 218 229 227 233 237 245 250 253 260 262 262 267 271 278 282 281 284 286 279 274 277 271 273
18 20 16 24 35 27 18 19 20 5 347 333 336 337 345 340 337 338 335 331 325 327 322 318 313 314 309 305 301 302 301 299 296 296 301 303 301 295 292 287 284 281 280 279 279 277 276 275 273 271 269 270 269 265 261 262 255 230 233 214 211 208 210 215 213 216 223 231 239 243 250 256 257 260 266 274 280 278 273 278 284 285 285 282 278
13 13 6 37 37 28 25 13 13 356 344 340 331 330 336 334 334 333 330 324 322 318 312 309 308 305 300 300 301 303 301 297 301 307 306 301 293 289 287 286 285 286 285 284 283 283 282 281 278 272 269 271 268 266 263 259 247 249 230 210 202 210 208 218 216 223 229 237 243 244 245 249 250 252 259 263 271 281 289 291 282 281 285 284 278
15 360 2 19 18 10 11 8 359 355 349 346 332 330 331 328 326 324 321 316 316 309 305 306 307 304 307 307 307 305 301 297 295 296 293 291 291 289 287 286 286 282 280 280 282 282 284 285 282 278 275 275 274 271 267 262 257 246 218 207 195 204 204 212 220 230 232 235 238 242 243 246 242 245 256 263 272 279 283 281 281 283 283 280 278
2 357 352 14 7 2 353 354 353 348 347 340 334 335 328 328 323 320 318 319 317 312 317 318 314 315 313 309 308 303 297 295 297 298 299 298 296 292 288 285 280 277 278 280 281 283 287 294 296 291 281 268 272 272 271 269 263 248 235 221 197 198 200 215 226 231 229 228 239 245 246 247 251 254 259 268 271 273 277 283 280 281 278 280 281
354 356 346 6 349 355 346 347 347 342 343 337 337 335 333 329 327 324 323 322 318 321 317 309 312 309 305 305 302 298 296 294 298 300 300 298 294 287 282 279 276 277 277 276 279 286 289 289 292 306 312 307 292 283 276 273 266 253 244 241 237 231 226 223 224 221 222 230 236 239 239 246 251 259 264 266 269 275 279 278 274 275 277 273 276
350 349 343 346 349 348 345 343 339 336 331 333 329 331 325 319 315 314 311 308 309 307 304 307 305 305 308 305 299 295 294 295 299 299 298 296 293 292 287 281 273 269 280 296 298 298 299 299 302 303 303 302 301 291 283 272 264 253 240 240 240 237 235 236 233 232 236 239 241 244 244 249 254 253 258 267 275 276 274 269 265 269 271 270 269
343 336 332 327 324 326 323 323 322 321 321 320 317 315 315 311 306 307 303 302 301 302 303 304 306 306 304 301 296 296 293 293 298 298 296 296 299 304 313 293 272 284 282 288 297 301 305 308 303 303 303 307 293 288 291 286 274 268 267 263 262 255 248 244 242 241 241 242 246 248 250 251 255 260 263 268 272 273 270 266 268 270 270 267 272
326 321 318 317 318 318 319 318 318 318 318 315 315 313 312 311 307 306 306 304 305 303 304 306 304 299 296 295 295 292 288 291 297 296 295 296 301 303 299 257 272 270 273 276 292 297 297 299 299 296 298 299 297 290 275 270 271 272 265 261 260 263 265 266 261 260 260 261 261 266 266 262 261 261 261 260 263 264 263 264 266 270 270 272 269
317 317 318 316 319 319 321 317 315 315 313 310 308 308 308 307 305 305 304 300 302 302 300 301 299 294 288 289 288 291 291 297 299 298 298 302 303 302 295 280 273 270 265 271 280 291 290 290 294 293 291 288 287 290 288 283 275 261 259 259 257 255 251 250 252 252 251 251 250 250 254 256 256 253 251 253 253 252 255 255 260 260 265 268 269
319 332 328 324 325 323 322 317 312 310 308 307 305 305 306 304 302 302 303 300 303 302 299 296 295 294 289 286 286 289 293 296 301 302 302 299 298 294 289 282 278 269 265 271 277 278 283 279 281 288 286 282 282 283 282 280 280 277 266 254 247 252 258 255 260 263 263 264 263 262 261 260 263 263 264 264 264 264 273 279 267 267 261 263 265
332 337 329 328 328 324 319 313 310 309 308 306 304 304 304 302 299 303 304 301 302 300 299 297 296 295 293 291 288 289 290 292 295 298 298 294 289 287 285 283 279 276 276 277 280 286 284 288 291 290 288 291 291 287 283 282 277 273 269 269 266 260 257 255 254 257 264 270 274 278 279 282 283 285 288 291 292 292 290 273 274 275 275 274 274
339 337 331 327 326 319 315 313 310 309 307 304 305 302 302 301 303 303 300 300 301 300 300 300 298 298 296 291 288 285 284 287 289 293 296 294 290 281 280 280 279 279 282 289 289 287 287 284 287 299 302 301 299 292 290 289 284 276 273 269 268 266 264 264 262 258 253 250 256 260 267 273 275 274 274 275 275 272 265 261 266 256 258 258 263
336 332 325 322 318 316 314 313 312 312 308 306 305 303 302 303 301 304 303 301 299 300 300 299 296 292 293 289 285 281 280 282 290 293 297 296 290 284 281 281 280 277 272 284 286 290 290 290 285 309 325 320 313 304 299 295 294 296 297 288 280 276 276 270 265 261 262 265 267 269 271 273 271 271 268 263 258 246 235 242 243 250 254 258 258
327 325 321 319 318 318 319 319 318 313 310 308 304 300 301 301 302 303 301 299 297 297 295 291 289 289 292 290 288 285 282 283 288 292 298 297 289 285 279 279 282 263 260 263 278 283 292 297 303 322 329 321 315 306 299 295 291 293 295 294 294 297 315 327 334 325 297 281 275 269 266 264 261 257 256 255 256 255 249 231 237 239 249 253 255
326 325 322 321 321 322 322 321 319 311 308 308 304 303 300 301 298 299 302 301 294 288 288 291 293 295 299 295 291 291 286 277 288 294 296 294 288 282 283 287 283 220 261 260 280 288 292 304 315 323 319 313 308 300 294 290 299 316 308 296 302 330 337 311 309 306 297 294 285 280 281 284 284 277 271 268 265 263 254 250 242 236 242 246 252
325 323 320 318 320 318 317 323 315 311 309 309 307 302 304 304 300 297 289 291 291 289 287 286 288 293 299 304 305 299 282 286 276 282 292 291 283 281 283 285 8 117 254 275 289 293 301 307 312 315 311 309 304 302 302 314 324 311 307 310 321 330 325 307 304 300 291 288 289 289 288 286 287 290 293 288 287 288 280 258 253 244 241 242 245
322 320 318 319 320 321 325 318 313 310 311 311 309 303 302 302 300 298 295 295 297 297 298 299 298 299 300 307 310 312 309 307 297 288 296 288 277 276 279 309 2 345 309 292 293 303 304 311 312 312 314 314 313 317 322 320 312 316 320 322 319 316 307 303 290 286 286 281 279 278 277 277 278 283 283 303 318 318 302 285 264 247 243 246 247
318 315 317 316 319 318 319 310 308 312 315 317 310 309 307 306 304 304 303 298 294 295 297 297 296 298 300 303 307 315 318 315 306 297 301 288 283 289 299 315 340 334 315 297 303 304 308 307 309 312 315 314 316 317 313 310 310 314 317 312 310 299 297 290 287 283 278 275 274 273 274 272 277 278 287 298 301 292 273 268 249 247 244 244 253
314 313 313 316 315 314 316 309 314 315 312 318 310 305 305 304 306 305 306 299 298 297 296 298 296 296 299 300 304 317 318 313 302 304 299 274 275 295 314 327 324 320 308 297 298 300 302 306 309 311 312 313 314 310 305 301 301 300 298 297 289 285 283 285 283 279 273 276 273 274 273 277 274 279 296 285 279 274 278 279 285 264 245 251 250
310 314 317 317 316 317 315 320 321 314 311 317 317 313 311 306 304 302 301 301 303 302 300 302 301 301 300 303 311 315 318 315 307 305 281 269 272 277 290 301 304 300 291 290 298 301 304 308 310 307 300 301 299 295 293 292 290 287 286 284 283 283 282 279 285 285 285 277 278 273 277 277 283 282 274 273 268 270 272 278 279 282 280 272 273
320 316 315 312 316 317 309 307 309 312 317 316 314 316 316 314 304 300 304 306 306 303 307 306 304 303 303 304 307 310 314 319 316 317 309 298 295 294 293 300 302 297 301 302 305 310 306 303 301 300 303 302 300 301 294 291 288 286 282 279 280 282 281 279 274 269 267 269 271 276 275 274 271 270 273 271 272 272 269 267 275 278 276 274 266
312 305 313 318 310 313 306 303 308 313 311 311 312 308 307 309 304 296 290 286 292 301 305 304 302 302 302 301 300 299 302 308 310 318 310 309 313 323 323 320 317 311 310 330 325 305 297 301 304 303 304 304 304 301 299 297 293 290 286 279 275 271 269 266 271 272 276 278 276 277 277 277 276 276 275 273 271 272 265 262 269 268 276 265 261
317 319 321 321 320 318 313 308 311 314 314 313 314 312 301 288 282 287 297 297 298 300 304 302 306 305 300 294 290 274 285 291 300 310 314 316 325 336 327 316 312 319 353 353 331 308 301 300 301 304 303 303 304 302 302 304 303 300 295 293 287 279 273 273 272 275 277 276 276 274 273 273 273 272 271 271 272 273 269 262 272 265 263 262 261
326 325 326 322 321 312 306 305 312 314 312 313 311 310 314 310 300 288 280 291 301 306 308 310 311 312 312 309 308 290 276 287 296 306 309 318 331 331 326 328 333 356 11 351 320 305 304 300 302 302 299 301 301 304 310 308 306 305 304 300 295 287 282 277 273 275 276 278 276 274 272 271 270 270 270 269 273 274 279 269 267 264 259 263 264
331 326 323 318 313 305 306 305 307 309 311 311 307 308 308 310 309 307 303 299 300 304 306 311 317 318 317 313 305 296 279 277 298 304 317 331 329 339 353 354 350 2 355 340 308 300 298 297 299 299 301 301 303 312 312 312 311 311 310 309 304 302 297 290 301 304 291 282 277 273 270 268 267 267 266 268 268 271 270 272 262 255 255 259 259
322 318 317 312 307 301 299 304 309 311 309 308 307 305 304 305 307 311 314 309 308 305 306 311 319 321 322 322 315 310 309 313 310 324 339 328 327 13 6 356 348 356 341 321 306 303 301 296 297 297 302 303 311 313 314 313 318 316 315 315 315 315 313 311 305 284 273 270 274 274 275 271 268 264 263 261 261 263 265 263 260 255 257 256 255
303 316 319 311 305 301 303 305 307 309 307 302 298 297 297 298 300 305 310 318 319 315 310 315 318 323 326 326 319 316 321 321 329 333 327 313 11 14 358 336 333 338 3 314 310 301 302 301 298 303 303 309 312 315 313 317 317 315 316 316 315 312 309 307 297 291 290 288 280 281 279 275 270 267 263 259 256 255 256 257 256 254 243 243 250
313 307 290 291 301 300 300 301 305 308 307 302 298 295 295 298 303 305 309 312 314 317 320 323 325 325 323 320 319 328 333 327 326 323 310 341 28 360 349 325 322 320 319 320 311 305 306 304 303 305 309 312 313 313 311 313 313 314 316 316 314 314 314 313 308 305 304 304 301 294 289 283 274 262 258 255 255 250 250 251 252 247 244 236 241
308 311 312 294 291 295 297 300 308 309 306 303 298 299 302 302 303 305 306 302 305 310 311 319 323 314 313 317 332 342 337 332 322 312 325 21 21 5 336 327 322 323 322 318 316 312 309 303 304 306 310 309 309 311 311 309 307 309 310 310 308 311 312 310 311 317 318 309 301 299 296 283 269 259 253 248 242 245 250 254 255 242 234 243 259
311 316 317 319 314 305 303 303 304 308 306 301 300 299 300 300 302 304 303 305 307 309 313 316 324 322 325 323 347 338 336 328 320 319 4 20 15 345 332 324 322 319 316 317 318 315 311 310 313 310 311 309 310 309 309 305 304 301 298 297 299 298 300 306 307 309 308 307 307 310 305 292 278 260 251 247 241 233 237 240 238 223 210 247 293
285 301 314 321 316 313 313 314 314 312 306 305 303 304 304 303 305 304 303 305 309 312 313 316 319 320 328 330 334 333 324 310 302 289 296 341 346 336 332 321 318 312 313 313 315 315 309 310 310 313 309 308 304 305 304 303 302 301 302 301 298 292 293 295 298 300 302 304 312 317 316 310 289 264 243 245 242 234 231 219 206 195 176 183 237
323 312 314 320 316 318 317 315 314 313 311 311 309 310 308 308 308 306 310 311 312 313 313 315 318 323 334 336 329 325 319 307 308 320 334 331 329 329 323 317 316 315 316 313 315 312 312 309 308 305 303 302 303 299 298 299 301 297 297 298 296 299 302 306 309 313 313 317 317 319 320 317 309 291 271 256 248 231 193 136 175 208 228 232 221
315 324 325 322 325 326 320 314 310 310 311 317 316 316 312 309 309 313 313 315 313 315 314 317 316 326 335 334 327 332 326 322 328 328 330 326 324 324 319 316 318 319 318 317 316 314 309 308 305 304 301 301 301 299 297 295 295 295 294 292 298 301 302 304 306 312 313 317 315 318 324 324 321 312 325 13 54 84 99 139 100 39 313 319 357
325 322 318 317 324 319 316 312 313 320 322 319 315 312 309 309 311 312 312 309 312 314 316 316 318 326 332 330 337 343 329 320 322 322 319 321 318 318 317 320 321 320 319 316 315 312 309 306 305 303 301 302 300 298 295 295 291 291 292 293 294 296 300 301 300 301 307 310 311 318 321 325 329 337 358 7 16 34 53 45 352 262 257 285 325
329 323 323 324 325 323 320 318 319 319 308 308 306 318 319 319 318 313 314 313 314 315 315 317 322 328 329 337 346 343 338 331 321 314 312 310 307 310 314 315 316 317 318 315 314 311 307 303 301 301 301 297 296 294 295 290 289 291 294 295 296 296 298 301 303 303 302 307 311 314 318 318 317 322 333 341 353 7 3 357 339 312 313 315 311
324 321 322 322 325 325 326 320 318 316 321 324 326 327 322 316 312 316 313 313 316 315 316 319 323 329 328 334 332 330 341 345 329 316 312 311 312 315 313 316 319 318 314 311 309 307 305 299 298 299 294 292 287 287 287 288 290 290 288 289 290 291 292 297 301 303 306 308 307 307 304 307 315 323 324 330 334 335 338 331 311 303 295 286 297
327 327 327 324 324 324 323 326 326 325 325 326 323 318 321 317 315 316 318 316 319 320 321 324 326 329 326 335 340 343 347 342 341 333 327 318 321 319 319 317 319 318 315 315 313 309 306 299 293 292 289 283 281 275 273 276 275 275 279 282 283 285 287 289 295 301 307 307 306 304 307 306 306 304 307 313 322 318 308 300 298 295 298 293 294
336 333 330 327 331 330 329 329 331 326 324 322 322 325 320 320 324 325 322 323 326 323 325 326 328 326 328 333 338 339 336 334 325 326 326 325 323 322 320 319 318 319 318 312 301 305 303 293 285 285 284 285 284 280 276 270 267 267 270 275 279 283 286 291 293 297 297 294 292 297 297 303 306 304 302 308 306 302 295 292 288 293 285 281 291
336 326 328 326 326 326 329 331 330 327 328 332 329 330 330 328 326 325 326 325 324 324 326 325 328 324 325 328 332 335 334 326 324 326 327 331 328 326 322 322 323 319 315 312 312 306 294 288 285 283 283 286 286 285 282 278 272 270 270 270 271 275 282 285 285 283 280 274 280 287 291 293 289 291 295 300 300 293 290 290 284 276 284 294 291
330 326 326 324 326 320 324 326 329 333 333 329 326 326 326 331 324 321 318 323 320 317 319 326 325 327 329 325 327 327 325 326 326 327 322 311 316 320 325 327 324 319 317 313 307 300 294 283 281 281 280 281 283 280 280 282 284 284 283 282 280 280 279 285 288 280 276 266 265 269 278 285 291 294 288 282 286 285 283 280 280 281 280 284 294
336 329 326 324 321 327 332 328 327 321 323 326 323 321 319 317 320 322 327 327 321 323 320 319 321 325 324 326 327 325 328 325 324 319 320 322 326 328 325 313 307 316 312 306 307 304 299 293 285 282 278 278 280 285 287 288 290 291 291 290 287 290 294 290 286 277 264 261 254 256 260 263 274 281 290 292 289 294 290 286 280 275 279 282 284
334 336 332 333 333 332 334 331 327 325 325 320 319 312 320 320 320 323 326 323 321 318 321 323 324 326 324 324 321 323 324 323 325 328 328 328 327 326 321 310 304 298 301 304 304 300 293 289 285 282 283 285 287 288 293 294 297 295 295 293 295 295 290 289 288 285 286 279 260 250 247 253 258 264 269 271 275 276 277 279 285 286 287 280 281
337 333 332 331 329 333 327 320 315 315 321 317 316 319 320 318 322 325 324 318 314 321 326 326 322 324 321 320 323 321 322 324 325 325 327 327 326 321 315 311 307 306 305 304 302 298 296 297 289 288 289 292 293 296 299 299 298 298 298 303 309 310 307 303 296 288 283 275 269 259 257 257 261 264 270 272 275 270 269 267 266 270 272 279 278
337 333 331 332 328 326 324 325 327 326 325 325 323 324 325 320 320 320 321 322 323 328 328 325 323 320 316 319 318 320 322 317 322 326 325 324 322 318 316 313 311 310 306 299 299 300 298 297 299 302 300 299 302 304 302 300 299 302 309 312 313 312 309 309 304 301 295 288 275 263 253 251 254 259 265 264 262 259 259 269 269 265 270 275 279